Location: Asis
(14.1331°N, 120.9056°E)
Time: 04:28:51
(UTC+00:00)

Resurs 01 Rocket - Pass Details

Date: 15 January 2026
Orbit: 627 x 635 km, 97.7° (Epoch: 11 February)

Event Time Altitude Azimuth Distance (km) Brightness Sun altitude
Rises 11:33:37 0° 179° (S) 2,905 5.2 -25.2°
Reaches altitude 10° 11:35:51 10° 184° (S) 1,998 4.4 -25.7°
Maximum altitude 11:40:04 50° 259° (W) 798 2.4 -26.7°
Drops below altitude 10° 11:44:17 10° 335° (NNW) 1,997 4.2 -27.7°
Enters shadow 11:45:41 - 339° (NNW) 2,556 4.8 -28.0°
Sets 11:46:32 0° 341° (NNW) 2,904 5.0 -28.2°
Exits shadow 11:46:35 - 341° (NNW) 2,923 5.1 -28.2°
